Retour au catalogue

COSMOS 252 DEB

ActifLEO
NORAD 3555·DEBRIS·🇷🇺 Russia

Lancé Nov 1, 1968 depuis Baikonur Cosmodrome

Loading…

Prochains Passages (prochaines 24 heures)

TLE

FraisSource: Space-Track

Époque: Sep 14, 2026, 10:05 UTC

1 03555U 68097H   26257.42044056  .00000634  00000-0  28117-3 0  9990
2 03555  62.3229  45.8775 0892800 193.2190 164.3951 13.08550482748488

Suivez COSMOS 252 DEB en temps réel avec AllMySat

Download on the App Store